Probability
0 0 0 0 0 0 0 0 0 0 0 0 0 0 0 0 0 0 0 0 0 0 0 0 0 0 0 0 0 0 0 0 0 0 0 0 0 0 0 0 0 0 0
0 0 0 0 0 0 0 0 0 0 0 0 0 0 0 0 0 0 0 0 0 0 0 0 0 0 0 0 0 0 0 0 0 0 0 0 0 0 0 0 0 0 0
0 0 0 0 0 0 0 0 0 0 0 0 0 0 0 0 0 0 0 0 0 0 0 0 0 0 0 0 0 0 0 0 0 0 0 0 0 0 0 0 0 0 0
0 0 0 0 0 0 0 0 0 0 0 0 0 0 0 0 0 0 0 0 0 0 0 0 0 0 0 0 0 0 0 0 0 0 0 0 0 0 0 0 0 0 0
0 0 0 0 0 0 0 0 0 0 0 0 0 0 0 0 0 0 0 0 0 0 0 0 0 0 0 0 0 0 0 0 0 0 0 0 0 0 0 0 0 0 0
0 0 0 0 0 0 0 0 0 0 0 0 0 0 0 0 0 0 0 0 0 0 0 0 0 0 0 0 0 0 0 0 0 0 0 0 0 0 0 0 0 0 0
0 0 0 0 0 0 0 0 0 0 0 0 0 0 0 0 0 0 0 0 0 0 0 0 0 0 0 0 0 0 0 0 0 0 0 1 3 3 1 0 0 0 0
0 0 0 0 0 0 0 0 0 0 0 0 0 0 0 0 0 0 0 0 0 0 0 0 0 0 0 0 0 0 0 0 0 0 0 5 13 12 5 0 0 0 0
0 0 0 0 0 0 0 0 0 0 0 0 0 0 0 0 0 0 0 0 0 0 0 0 0 0 0 0 0 0 0 0 0 0 0 9 24 27 12 2 1 1 0
0 0 0 0 0 0 0 0 0 0 0 0 0 0 0 0 0 0 0 0 0 0 0 0 0 0 0 0 0 0 0 0 0 0 0 12 29 29 14 4 2 3 3
0 0 0 0 0 0 0 0 0 0 0 0 0 0 0 0 0 0 4 6 4 0 0 0 0 0 0 0 0 0 0 0 0 0 6 25 41 32 13 4 5 7 8
0 0 2 3 2 0 0 0 0 5 9 6 4 6 3 0 0 3 15 23 13 1 0 0 0 0 0 0 0 0 0 0 0 0 14 47 65 48 20 7 6 7 7
0 0 4 8 4 0 1 2 2 16 28 19 13 17 9 3 3 10 34 44 21 2 0 0 0 0 0 0 0 0 0 0 0 0 15 47 64 50 26 10 4 3 2
0 1 9 14 8 0 4 7 6 19 31 24 23 24 17 17 17 24 50 53 24 5 3 1 0 0 0 0 0 0 0 0 0 0 7 21 32 30 18 6 2 0 0
1 3 13 22 14 4 8 12 9 15 21 20 21 26 27 37 44 51 63 53 22 9 11 7 2 0 0 0 0 0 0 0 0 0 1 4 10 13 8 2 0 0 0
3 10 24 34 33 21 16 17 14 16 24 21 19 26 37 50 68 80 80 60 28 16 23 19 7 1 1 0 0 0 0 0 0 0 0 1 7 11 7 1 0 0 0
25 35 46 51 55 56 45 37 30 30 39 41 33 37 52 67 83 95 94 78 53 40 43 35 17 6 2 0 0 0 0 1 0 0 0 1 5 8 6 2 1 1 1
66 72 72 65 75 86 83 72 57 51 60 66 59 59 74 87 93 98 99 93 84 78 69 52 32 15 4 0 0 1 1 2 1 0 0 0 2 5 5 4 6 5 3
93 95 90 84 89 98 100 94 81 74 79 85 80 77 87 96 97 98 98 98 98 97 88 71 56 36 17 6 1 1 2 2 3 2 1 1 3 7 6 6 8 7 4
99 100 99 98 98 100 100 98 93 89 91 94 92 89 91 92 92 93 95 95 95 96 94 88 77 62 39 18 6 1 1 5 11 10 3 1 5 8 6 4 4 4 2
100 100 100 100 100 100 100 100 99 97 98 99 98 95 90 82 74 77 86 92 90 88 89 89 83 70 53 33 14 3 1 10 21 17 5 1 3 4 3 1 2 3 3
100 100 99 99 99 99 99 99 99 98 96 96 96 95 88 74 56 55 75 90 86 77 75 77 71 59 46 33 19 7 1 9 18 12 3 3 6 5 2 0 2 6 10
99 99 98 97 97 96 96 97 98 95 91 89 89 90 86 75 57 50 66 86 84 76 73 70 62 47 29 18 13 7 3 4 5 3 1 10 20 17 5 0 1 6 10
94 94 93 92 92 92 92 96 97 93 87 80 76 76 77 76 68 60 67 83 88 86 84 77 65 47 23 8 5 5 4 2 1 1 2 13 27 22 7 2 3 4 4
80 81 83 86 89 89 89 93 95 91 80 65 55 54 59 67 71 67 69 80 89 91 90 85 75 56 32 13 7 6 6 4 2 1 1 7 14 12 5 6 8 4 1
67 70 76 84 89 87 85 90 93 87 71 51 39 37 44 59 69 68 67 75 84 88 88 87 81 62 40 21 11 8 8 6 2 1 0 1 2 2 5 10 10 5 1
Wind_Speed
17 17 17 15 14 14 14 14 13 13 12 12 11 12 11 11 11 11 11 10 11 11 11 10 9 7 7 7 8 9 11 11 12 11 11 10 8 7 6 5 7 10 10
20 17 16 15 13 13 14 14 13 12 12 11 11 11 10 10 11 11 10 10 9 9 9 9 9 7 6 6 7 7 8 9 9 9 9 9 8 6 6 9 11 8 8
19 17 16 14 13 12 12 13 13 13 12 11 10 10 10 10 10 10 10 9 8 8 7 7 8 8 7 7 8 7 7 6 6 7 8 7 8 7 6 7 9 9 7
19 16 15 15 13 11 11 11 13 13 12 11 10 10 10 10 9 9 9 8 8 7 5 5 7 7 7 7 7 7 6 6 6 7 7 8 9 11 9 6 6 6 6
18 17 17 16 14 12 10 9 11 13 12 11 10 10 10 10 9 9 8 7 7 6 6 5 5 6 6 6 5 5 5 6 7 9 9 4 6 12 10 8 5 5 5
19 18 17 17 15 13 12 10 9 11 11 10 9 9 9 8 9 8 8 6 6 6 6 5 4 4 5 6 5 5 5 6 8 8 8 2 8 10 10 8 7 6 5
19 17 16 16 15 14 13 12 10 10 10 9 8 7 7 5 6 7 6 6 5 6 6 4 3 3 3 5 6 6 6 7 8 8 4 3 10 13 11 9 7 6 6
20 18 16 16 15 13 13 12 12 11 10 10 10 8 7 6 5 5 5 6 5 4 4 4 3 3 3 4 6 6 7 9 9 9 5 3 13 14 13 11 9 8 8
21 18 15 14 14 14 14 14 13 12 11 10 10 9 8 7 7 7 7 7 7 6 5 5 4 5 5 6 6 7 8 9 9 7 7 3 13 13 13 11 10 10 10
18 16 15 14 13 12 12 14 14 13 12 10 9 9 8 9 10 11 10 11 10 8 8 7 7 7 8 8 9 10 11 10 9 9 5 6 14 13 12 11 10 10 11
13 14 13 13 12 12 12 12 13 12 11 11 10 11 10 9 10 11 14 13 13 11 10 10 10 10 10 11 12 13 11 7 10 8 3 9 13 12 11 10 9 10 11
10 11 13 12 10 10 9 10 9 9 9 9 9 10 8 7 6 7 10 13 14 12 11 11 11 11 10 8 11 15 7 10 10 6 4 14 14 12 11 10 11 11 12
9 8 10 12 9 9 7 9 6 6 8 10 8 9 7 6 5 5 5 8 8 10 7 8 9 7 7 6 4 6 9 7 5 5 2 11 11 11 11 11 12 12 13
11 11 9 10 6 5 4 6 4 4 6 5 7 7 5 4 2 2 1 3 4 4 4 4 4 7 8 7 5 4 7 6 3 1 3 9 10 11 11 11 11 13 13
9 9 8 8 6 3 1 1 4 3 3 3 2 6 5 3 3 2 0 1 4 3 5 4 4 4 5 3 4 5 4 4 4 3 1 6 10 11 12 12 13 13 13
11 10 9 8 7 4 3 2 2 2 2 2 2 4 6 4 3 3 3 3 3 4 4 4 3 1 2 3 5 5 4 5 4 4 4 6 12 13 13 13 14 14 15
12 10 9 8 8 7 6 5 4 4 4 4 4 5 5 5 5 5 4 4 4 5 3 3 3 2 4 5 6 7 5 5 5 6 5 4 5 11 14 14 14 14 15
11 10 9 10 11 9 6 5 5 5 4 4 5 5 7 7 6 5 4 5 4 3 2 3 3 3 5 5 5 6 5 4 6 6 5 5 4 4 9 16 16 15 16
9 9 10 8 10 10 9 6 6 4 4 3 3 4 4 5 6 5 4 4 4 3 4 5 4 4 4 4 6 4 4 4 6 7 6 6 4 3 4 8 13 15 16
9 8 8 6 5 7 6 5 5 5 4 4 4 3 4 4 5 5 5 5 5 4 4 4 4 4 3 3 5 3 4 6 6 6 6 5 5 6 5 4 4 8 12
9 8 7 6 5 4 4 5 5 5 4 4 5 6 5 6 7 6 6 6 6 6 6 5 5 5 4 3 2 3 5 8 7 4 4 4 5 5 3 4 4 2 2
7 7 5 4 4 3 1 1 2 4 4 4 4 5 6 7 8 10 8 7 7 7 6 5 5 4 3 4 3 3 4 3 1 4 5 5 5 4 5 7 6 5 4
6 6 5 5 4 3 3 2 2 3 4 6 6 6 7 8 9 9 9 7 8 6 4 4 4 5 4 4 4 3 3 1 1 4 6 5 5 3 4 4 3 5 5
4 5 5 4 3 2 2 2 4 4 6 7 7 8 8 8 8 9 9 8 7 6 4 4 4 4 5 5 4 4 4 3 3 3 3 4 4 4 5 3 4 4 3
2 3 3 2 1 0 2 3 3 5 5 6 7 9 9 8 7 7 8 7 6 5 5 5 3 4 3 4 4 3 4 4 5 4 3 2 1 3 5 5 4 2 2
2 2 3 4 2 1 2 3 4 5 6 8 9 9 8 6 4 5 5 5 5 4 4 3 2 2 2 3 4 4 4 4 3 4 4 4 4 5 5 3 2 2 1
Wind_Direction
115 119 121 120 123 132 139 138 138 138 135 132 123 113 111 106 101 98 96 101 111 114 109 101 93 91 96 97 91 95 99 99 101 106 109 107 101 86 62 63 121 93 97
116 120 121 120 122 129 139 142 143 142 140 137 131 125 121 113 108 104 99 100 109 115 115 111 104 98 99 118 120 116 117 119 123 130 133 130 124 107 74 57 72 103 106
116 122 124 120 122 126 135 146 150 149 147 145 143 140 133 121 115 110 106 105 108 113 117 122 116 110 110 119 131 134 137 141 147 167 178 173 145 136 108 87 94 108 109
122 130 124 123 123 125 127 142 152 150 153 155 154 147 139 128 123 118 113 111 110 110 109 120 130 123 122 127 137 147 156 167 188 217 221 211 158 148 139 124 122 132 132
127 123 126 131 128 127 124 126 145 153 156 160 157 147 142 136 133 127 120 118 112 110 108 101 118 129 137 142 149 162 176 193 214 239 257 253 123 149 150 148 154 164 167
125 125 134 137 135 135 134 129 134 150 154 156 156 145 140 140 140 133 130 132 126 110 101 105 114 131 156 161 166 180 202 226 236 239 246 173 113 150 156 164 180 195 194
124 126 133 137 136 139 141 140 138 140 144 146 144 141 142 148 157 151 148 144 136 126 121 121 121 153 174 177 186 197 216 240 254 270 256 162 140 157 169 181 203 205 200
126 124 129 136 139 141 146 147 145 147 146 147 151 153 157 164 171 173 169 164 160 150 150 157 156 165 199 203 207 216 232 255 252 268 259 191 151 164 174 187 204 218 216
124 128 139 141 145 146 146 151 155 156 153 154 158 164 171 181 190 195 197 194 192 193 198 205 209 207 217 223 225 231 241 255 278 282 283 135 155 170 177 191 208 222 225
126 136 143 149 150 155 154 155 158 159 161 168 174 180 191 200 207 211 211 209 207 212 220 225 230 230 227 226 229 233 239 251 257 263 261 163 166 173 183 197 213 227 230
132 137 145 148 155 162 163 160 164 167 174 183 191 200 206 219 218 212 220 211 212 216 221 226 230 234 235 232 231 233 237 242 249 244 240 155 168 178 190 199 217 231 235
136 145 147 149 161 168 166 156 175 178 179 201 197 192 206 226 244 227 204 200 205 212 222 228 234 236 233 240 231 226 233 237 254 254 210 169 175 184 194 204 220 234 239
151 165 151 149 166 179 167 169 190 186 170 203 199 181 204 219 229 214 175 184 202 213 221 223 225 230 232 235 243 208 225 247 246 259 183 169 180 194 209 219 230 240 246
172 172 162 147 169 197 186 172 182 190 171 207 175 176 211 202 234 273 136 152 203 207 211 233 217 218 228 237 246 224 220 233 247 261 158 174 193 208 225 237 243 248 250
178 166 148 144 162 195 287 151 194 226 181 200 179 181 206 209 203 216 200 192 242 213 195 226 259 228 203 224 253 252 252 275 275 281 182 197 210 218 231 244 251 256 257
178 175 155 160 162 178 204 244 265 239 159 261 249 229 200 209 204 175 189 209 246 255 206 192 247 250 220 244 251 249 235 245 253 250 241 227 225 227 234 241 246 252 258
179 177 158 169 175 183 204 213 232 241 212 224 233 241 223 216 215 198 196 205 229 243 227 214 245 241 239 237 232 235 223 218 234 237 240 239 226 223 229 237 240 243 250
175 167 170 184 183 183 199 214 230 236 229 218 232 231 214 218 225 207 204 218 215 225 224 227 227 230 243 252 250 227 207 208 227 229 231 232 226 224 223 234 241 243 250
169 162 171 195 184 182 192 200 230 243 252 251 251 257 233 222 233 231 226 229 217 208 198 229 214 216 239 256 256 220 200 216 222 220 221 235 228 215 226 233 229 236 246
170 160 167 188 197 178 182 193 225 240 245 252 265 281 294 278 259 254 252 237 240 232 205 216 230 222 232 250 274 284 234 220 214 214 214 222 215 216 226 232 214 235 239
154 149 169 189 198 190 189 206 221 233 236 239 245 250 259 272 278 268 265 255 238 243 230 217 219 229 225 219 249 281 267 240 213 204 211 231 215 206 208 233 233 232 263
118 140 163 187 178 180 212 257 292 300 293 286 274 261 249 260 269 270 252 244 238 241 237 226 223 232 239 218 221 248 276 282 198 209 210 209 220 201 211 227 213 205 221
86 97 90 75 72 63 17 334 314 304 291 285 282 275 256 249 245 251 260 249 243 243 238 227 224 232 243 245 230 229 256 268 254 241 225 218 198 197 233 239 235 229 213
85 86 78 70 55 38 348 313 319 307 299 305 307 300 299 291 272 254 255 250 238 228 218 215 217 216 236 253 257 236 236 247 246 287 246 227 197 210 239 252 254 265 248
92 105 117 115 124 44 337 334 320 306 311 314 312 306 303 291 275 266 258 252 236 221 213 205 213 208 210 234 248 252 250 248 238 242 269 285 274 254 239 231 224 230 259
155 178 164 163 171 208 313 337 339 332 325 315 314 315 314 310 298 284 269 250 238 228 220 201 178 180 187 236 256 253 245 245 243 237 249 263 261 255 234 211 220 224 255